This demonstration page uses our WeatherBlox Daily Observations layout. Learn more.

Left ArrowRight Arrow

41.12389, -100.76542

Hourly Observations for September 14, 2016

Temp ( °F °C ) Dew Point ( °F °C ) Humidity (%) Winds ( mph kmh ) Pressure ( in mb ) Visibility ( mi km ) Precip ( " mm )
12:53 am 00:53 Mostly Cloudy 50 10 45 7.2 83 83 E 5 7 30.30 1026 10 16 0.00 0.00
1:53 am 01:53 Cloudy 52 11.1 45 7.2 77 77 E 5 7 30.29 1026 10 16 0.00 0.00
2:53 am 02:53 Mostly Cloudy 50 10 45 7.2 83 83 E 5 7 30.28 1026 10 16 0.00 0.00
3:04 am 03:04 Partly Cloudy 48 9 45 7 87 87 E 5 7 30.30 1026 10 16 0.00 0.00
3:53 am 03:53 Clear 46 7.8 42 5.6 86 86 E 6 9 30.29 1026 10 16 0.00 0.00
4:53 am 04:53 Mostly Cloudy 45 7.2 42 5.6 90 90 ENE 5 7 30.27 1025 10 16 0.00 0.00
5:53 am 05:53 Cloudy 47 8.3 44 6.7 90 90 Calm 30.26 1025 10 16 0.00 0.00
6:53 am 06:53 Cloudy 49 9.4 45 7.2 86 86 ESE 5 7 30.24 1024 10 16 0.00 0.00
7:53 am 07:53 Cloudy 49 9.4 45 7.2 86 86 ESE 7 11 30.26 1025 10 16 0.00 0.00
8:53 am 08:53 Cloudy 51 10.6 46 7.8 83 83 ESE 7 11 30.26 1025 10 16 0.00 0.00
9:53 am 09:53 Cloudy 53 11.7 47 8.3 80 80 SE 8 13 30.27 1025 10 16 0.00 0.00
10:53 am 10:53 Cloudy 55 12.8 47 8.3 74 74 ESE 5 7 30.27 1025 10 16 0.00 0.00
11:48 am 11:48 Cloudy 57 14 48 9 72 72 ESE 5 7 30.21 1023 10 16 0.00 0.00
11:53 am 11:53 Cloudy 58 14.4 48 8.9 70 70 SE 6 9 30.24 1024 10 16 0.00 0.00
12:53 pm 12:53 Cloudy 62 16.7 50 10 65 65 SE 6 9 30.21 1023 10 16 0.00 0.00
1:53 pm 13:53 Cloudy 66 18.9 52 11.1 61 61 SE 8 13 30.16 1021 10 16 0.00 0.00
2:53 pm 14:53 Cloudy 68 20 53 11.7 59 59 SE 7 11 30.12 1020 10 16 0.00 0.00
3:53 pm 15:53 Cloudy 68 20 54 12.2 61 61 SE 10 17 30.10 1019 10 16 0.00 0.00
4:27 pm 16:27 Cloudy 70 21 54 12 57 57 SE 12 19 29.97 1015 10 16 0.00 0.00
4:53 pm 16:53 Cloudy 68 20 54 12.2 61 61 SSE 14 22 30.08 1019 10 16 0.00 0.00
5:38 pm 17:38 Partly Cloudy 66 19 54 12 64 64 SSE 10 17 30.00 1016 10 16 0.00 0.00
5:53 pm 17:53 Mostly Cloudy 67 19.4 54 12.2 63 63 SSE 15 24 30.06 1018 10 16 0.00 0.00
6:53 pm 18:53 Cloudy 63 17.2 53 11.7 70 70 SSE 10 17 30.05 1018 10 16 0.00 0.00
7:53 pm 19:53 Cloudy 62 16.7 54 12.2 75 75 SE 9 15 30.05 1018 10 16 0.00 0.00
8:53 pm 20:53 Cloudy 60 15.6 54 12.2 80 80 SE 8 13 30.06 1018 10 16 0.00 0.00
9:51 pm 21:51 Cloudy 59 15 54 12 82 82 SE 8 13 30.06 1018 10 16 0.00 0.00
9:53 pm 21:53 Cloudy 59 15 54 12.2 83 83 SE 8 13 30.08 1019 10 16 0.00 0.00
10:53 pm 22:53 Cloudy 58 14.4 54 12.2 87 87 SE 8 13 30.08 1019 10 16 0.00 0.00
11:12 pm 23:12 Cloudy 57 14 54 12 88 88 SE 9 15 30.06 1018 10 16 0.00 0.00
11:53 pm 23:53 Cloudy 58 14.4 54 12.2 87 87 SE 13 20 30.07 1018 10 16 0.00 0.00

Powered by AerisWeather